Temperature
15 15 15 15 15 15 15 15 15 15 15 15 15 15 14 14 15 15 15 15 15 15 14 14 14 14 14 14 14 14 14 14 14 14 14 14 14 14 14 14 14 14 14
15 15 15 15 15 15 15 15 14 14 14 14 14 14 14 14 14 14 14 14 14 14 14 14 14 14 14 14 14 14 14 14 14 14 14 14 14 14 14 14 14 14 14
15 15 15 15 14 14 14 14 14 14 14 14 14 14 14 14 14 14 14 14 14 14 14 14 14 14 14 14 14 14 14 14 14 14 14 14 14 14 14 14 14 14 14
15 15 14 14 14 14 14 14 14 14 14 14 14 14 14 13 13 13 14 14 14 14 14 14 14 13 13 13 13 14 13 14 14 14 14 14 14 14 14 14 14 14 14
15 14 14 14 14 14 14 14 14 14 14 14 14 13 13 13 13 13 13 13 13 13 13 13 13 13 13 13 13 13 13 13 13 13 13 13 13 14 14 14 14 14 13
15 14 14 14 14 14 14 14 14 14 13 13 13 13 13 13 13 13 13 13 13 13 13 13 13 13 13 13 13 13 13 13 13 13 13 13 13 13 13 13 13 13 13
14 14 14 14 14 14 14 14 14 13 13 13 13 13 13 13 13 12 12 13 13 13 13 13 13 13 13 13 13 13 13 13 13 13 13 13 13 13 13 13 13 13 13
14 14 14 14 14 14 14 14 13 13 13 13 13 13 12 12 12 12 12 12 12 12 12 12 12 12 13 12 12 13 13 12 12 12 12 12 12 12 12 13 12 12 12
14 14 14 14 14 14 13 13 13 13 13 13 13 13 13 12 12 12 12 12 12 12 12 12 12 12 12 12 12 12 12 12 12 12 12 12 12 12 12 12 12 12 12
14 14 14 14 14 14 14 13 13 13 13 13 13 13 13 13 12 12 12 12 12 12 12 12 12 12 12 12 12 12 12 12 12 12 12 12 12 12 12 12 12 12 11
14 14 14 14 14 13 13 13 13 13 13 13 13 13 13 13 12 12 12 12 12 12 12 12 12 12 12 12 12 12 12 12 12 12 12 12 12 11 11 11 11 11 11
14 14 14 14 14 14 13 13 13 13 13 13 13 13 13 13 13 13 12 12 12 12 12 12 12 12 12 11 12 12 11 11 11 11 11 11 11 11 11 11 11 11 11
14 14 14 14 14 14 14 13 13 13 13 13 13 13 13 13 13 13 12 12 12 12 12 12 12 12 12 11 11 11 11 11 11 11 11 11 11 11 11 11 11 10 10
15 14 14 14 14 14 14 14 14 13 13 13 13 13 13 13 13 13 12 12 12 12 12 12 12 11 11 11 11 11 11 11 11 11 11 11 11 11 11 10 10 10 10
15 14 14 14 14 14 14 14 14 14 13 13 13 13 13 13 13 13 12 12 12 12 12 12 12 12 11 11 11 11 11 11 11 11 11 11 11 10 10 10 10 10 10
15 14 14 14 14 14 14 14 14 14 13 13 13 13 13 13 13 13 12 12 12 12 12 12 11 11 11 11 11 11 11 11 11 11 10 10 10 10 10 10 10 10 10
14 14 14 14 14 14 14 14 14 13 13 13 13 13 13 13 13 13 12 12 12 12 12 12 11 11 11 11 11 11 11 11 10 10 10 10 10 10 10 10 10 10 10
14 14 14 14 14 14 14 14 14 13 13 13 13 13 13 13 13 12 12 12 12 12 12 11 11 11 11 11 11 11 11 10 10 10 10 10 10 10 10 10 10 10 10
14 14 14 14 14 14 14 13 13 13 13 13 13 13 13 13 12 12 12 12 12 12 11 11 11 11 11 11 11 11 11 11 10 10 10 10 10 10 10 10 10 9 9
14 14 14 14 13 13 13 13 13 13 13 13 13 13 13 13 12 12 12 12 12 12 11 11 11 11 11 11 11 11 11 10 10 10 10 10 10 10 10 10 9 9 9
14 14 13 13 13 13 13 13 13 13 13 13 13 13 13 12 12 12 12 12 12 11 11 11 11 11 11 11 11 11 10 10 10 10 10 10 10 10 10 9 9 9 9
14 13 13 13 13 13 13 13 13 13 12 12 12 12 12 12 12 12 12 12 12 11 11 11 11 11 11 11 11 10 10 10 10 10 10 10 10 9 9 9 9 9 9
13 13 13 13 13 12 12 12 12 12 12 12 12 12 12 12 12 12 12 12 12 11 11 11 11 11 11 11 10 10 10 10 10 10 9 10 9 9 9 9 9 9 9
13 13 13 12 12 12 12 12 12 12 12 12 12 12 12 12 12 12 11 11 11 11 11 11 11 11 10 10 10 10 10 9 9 9 9 9 9 9 9 9 9 9 9
12 12 12 12 12 12 12 12 12 11 11 11 11 11 11 11 11 11 11 11 11 11 11 11 10 10 10 10 10 9 9 9 9 9 9 9 9 9 9 9 9 8 8
12 12 12 11 11 11 11 11 11 11 11 11 11 11 11 11 11 11 11 11 11 11 11 10 10 10 10 10 9 9 9 9 9 9 9 8 8 8 8 8 9 8 8
Wind_Speed
4 5 5 6 7 8 7 7 8 8 8 9 10 10 9 10 11 11 11 13 13 12 11 11 11 12 12 12 12 12 12 12 11 11 10 10 9 8 8 7 7 8 8
4 4 4 5 5 7 7 7 7 6 6 7 7 9 9 10 11 11 12 13 15 14 13 12 12 11 12 12 11 11 12 12 12 13 13 12 10 9 8 8 9 9 9
5 5 4 4 4 7 8 8 8 7 5 6 6 7 8 9 10 10 11 11 12 13 13 13 12 12 11 11 11 11 11 11 12 12 12 12 11 10 9 8 9 9 10
6 5 4 3 5 7 6 5 4 5 5 5 5 5 6 7 9 9 10 11 11 11 12 13 12 13 12 12 11 12 11 11 11 11 11 12 11 11 9 9 9 10 10
6 6 4 4 6 6 4 4 4 4 4 4 4 5 5 5 6 8 9 10 10 11 11 12 13 13 12 12 11 11 11 11 11 10 11 11 11 11 10 10 10 10 11
7 6 5 5 5 4 4 4 4 4 3 3 5 5 4 4 5 6 6 8 9 10 10 11 11 11 12 12 11 10 10 10 10 11 11 11 10 10 10 10 10 10 10
7 6 4 4 4 3 3 4 4 4 3 2 3 3 4 4 5 4 5 5 7 8 9 10 9 9 9 10 10 9 9 9 9 10 10 10 10 10 9 9 10 10 10
6 6 5 3 3 4 4 3 3 3 2 2 2 2 2 4 4 4 4 4 4 6 7 8 8 9 9 8 9 9 8 8 8 9 9 9 9 10 10 10 10 9 9
4 4 5 4 4 4 4 3 3 4 2 1 2 3 2 1 2 3 3 4 4 4 4 6 7 7 8 7 7 7 8 8 8 8 8 9 9 9 9 9 10 10 10
4 4 4 4 4 3 4 3 3 2 3 2 1 2 2 3 2 1 3 3 3 3 4 4 5 6 6 6 6 7 7 8 7 7 7 8 8 8 7 8 9 9 9
2 3 4 4 3 3 3 3 3 2 2 3 2 2 2 2 2 2 1 3 3 3 3 3 3 4 5 5 5 6 8 8 8 8 7 7 8 8 8 8 9 9 9
1 2 3 3 3 3 4 4 3 3 2 2 2 2 2 2 2 2 2 1 1 2 2 2 2 2 3 3 4 5 6 6 7 7 8 8 8 9 9 8 8 8 8
2 3 3 3 3 3 4 4 3 3 4 3 3 2 2 2 2 3 3 1 0 2 2 2 2 2 2 2 2 3 4 5 6 6 7 7 8 8 7 7 7 7 8
4 4 4 3 3 3 3 3 3 3 3 3 3 3 2 2 3 3 3 3 1 1 2 2 2 2 2 1 1 2 3 4 4 5 5 5 6 7 7 6 6 7 7
3 4 4 4 3 3 3 3 3 3 3 3 3 3 2 2 2 2 3 3 4 2 2 2 2 2 2 1 1 1 1 2 3 4 4 4 5 5 5 6 6 6 6
3 3 4 4 4 4 3 3 3 3 3 2 2 3 2 2 2 2 2 2 3 4 2 2 2 1 1 1 1 1 0 1 2 2 3 3 4 4 5 5 6 5 4
3 4 4 4 4 4 4 4 4 4 3 3 2 3 3 2 2 2 3 3 3 3 3 1 1 1 0 0 1 1 0 1 1 1 1 1 2 3 3 3 3 4 4
3 3 3 4 4 4 4 4 4 4 4 4 4 3 3 3 3 3 3 3 3 3 4 2 1 1 1 1 0 0 1 1 1 1 0 1 1 1 2 2 2 2 2
3 3 3 4 4 4 4 4 5 4 5 5 4 5 4 4 4 3 4 4 3 3 3 3 2 1 0 0 1 1 1 1 1 1 1 1 1 1 1 1 1 2 1
4 4 4 5 5 4 4 4 5 5 4 4 4 5 5 6 6 6 5 5 4 4 3 3 2 1 1 0 1 0 1 1 1 1 1 1 2 2 2 2 3 3 3
4 4 4 4 4 4 5 5 5 5 4 4 4 4 5 6 7 6 5 6 6 5 4 3 2 1 2 1 2 2 2 0 1 1 0 1 1 1 2 3 3 4 5
3 3 4 4 4 5 6 7 6 5 4 4 4 4 4 5 6 7 7 8 9 7 6 5 4 4 4 4 3 3 2 1 2 1 1 1 1 2 3 4 5 5 5
3 3 4 4 4 5 7 7 8 5 5 5 5 4 3 3 4 4 6 7 8 9 9 7 6 7 6 6 5 4 4 3 3 2 2 2 1 2 4 5 6 6 6
2 3 4 4 4 5 7 7 7 5 4 4 5 5 5 5 4 5 4 3 4 6 7 6 7 7 7 6 7 6 5 3 0 1 3 2 2 2 3 5 6 6 6
2 2 3 3 4 5 5 6 5 3 3 4 4 4 5 5 6 6 5 4 4 4 6 8 8 8 8 9 9 5 4 3 2 2 3 3 2 2 2 2 6 7 7
3 2 2 3 4 4 5 5 5 3 3 3 3 3 6 6 6 7 6 6 5 5 3 3 4 5 5 7 10 8 7 5 3 3 4 4 2 2 2 2 2 4 6
Wind_Direction
78 75 69 68 69 76 80 77 72 66 61 54 53 55 52 49 45 42 39 49 56 60 63 67 71 73 72 70 67 65 65 63 60 61 63 67 73 80 83 82 87 92 93
97 91 80 73 72 79 85 86 81 74 64 59 52 50 49 48 44 42 39 41 47 52 56 61 67 70 70 68 67 65 66 64 64 63 62 63 68 73 77 79 84 85 86
109 103 92 83 85 93 93 90 80 73 67 60 50 46 47 45 44 42 40 38 38 43 50 55 60 65 68 67 67 66 66 66 66 64 63 63 64 68 73 81 86 87 85
124 110 95 89 97 99 95 90 82 77 66 61 54 43 43 41 39 41 43 39 38 36 41 48 54 59 62 64 66 65 66 66 67 65 64 64 64 64 70 79 86 89 86
128 117 105 106 108 98 88 96 81 87 84 72 67 54 42 37 31 37 40 38 37 37 39 41 47 54 57 60 62 63 64 67 68 68 67 66 65 67 70 77 82 86 86
130 122 110 109 112 97 87 91 93 78 81 81 77 61 42 34 36 32 31 34 35 36 41 42 41 42 48 51 54 61 64 66 67 67 65 64 63 66 70 73 81 85 85
134 128 118 112 110 112 117 114 105 91 74 71 77 50 28 32 36 26 26 34 31 31 36 39 40 40 36 39 45 56 61 63 65 66 66 67 66 68 73 77 81 86 87
141 143 136 132 127 117 110 114 110 104 80 53 94 85 28 6 8 18 20 25 20 27 30 33 38 38 36 35 38 51 55 58 61 64 64 66 68 71 74 75 79 83 89
145 145 147 140 140 142 148 146 135 127 131 52 65 117 120 224 333 353 11 17 14 20 17 23 30 32 34 31 33 43 51 53 57 60 60 64 67 70 76 82 79 79 82
145 146 147 147 149 149 155 168 155 142 136 138 78 70 119 151 140 348 343 358 8 12 5 12 19 24 29 31 33 41 49 50 50 52 60 63 66 71 79 88 88 84 81
143 155 158 158 161 163 170 174 160 158 154 156 153 136 103 81 104 146 287 331 351 350 352 358 9 17 25 34 38 47 51 50 48 50 56 62 70 78 84 90 90 87 85
183 171 166 171 176 175 182 186 178 174 176 164 164 156 153 153 171 159 184 262 311 321 341 354 2 360 16 31 39 47 51 51 52 50 52 59 67 75 81 86 89 89 86
210 208 188 190 187 192 192 181 175 185 185 182 183 183 179 180 160 154 151 173 294 315 328 333 324 338 3 24 28 44 52 57 56 54 54 56 60 66 73 81 88 91 90
215 205 196 199 196 191 190 177 184 192 183 189 194 185 182 189 170 167 163 153 138 330 333 302 320 325 341 7 22 53 58 61 59 59 60 61 63 63 67 76 82 86 86
213 201 199 197 201 197 192 179 188 197 181 191 195 187 186 191 177 176 165 160 157 185 276 277 290 314 323 352 35 72 74 59 57 60 63 69 74 72 72 72 73 72 71
202 189 193 194 197 199 192 181 185 190 178 196 188 175 186 188 171 166 163 160 159 168 207 248 241 279 294 35 49 66 102 54 54 61 67 77 83 86 88 81 76 76 75
199 198 197 189 194 196 190 186 192 185 190 203 195 186 206 182 174 172 159 157 164 157 179 255 259 303 296 16 49 50 355 308 337 33 74 85 89 90 88 83 80 77 74
203 202 195 193 201 199 189 186 195 191 196 207 210 198 214 188 188 181 173 180 184 178 167 193 231 243 245 241 202 13 338 310 267 284 180 142 126 118 106 93 89 92 88
204 202 195 203 208 202 194 199 199 198 202 209 207 206 213 189 203 196 187 189 191 180 162 167 196 203 238 357 53 14 9 353 302 269 246 228 221 204 191 182 179 170 172
203 209 211 214 210 200 199 203 201 204 207 212 213 211 207 199 206 198 193 192 180 168 159 160 172 190 203 235 132 165 346 343 311 308 280 250 238 231 224 217 212 207 212
219 214 212 220 213 205 211 205 201 202 206 216 221 220 216 212 210 198 193 187 177 174 170 172 185 179 199 196 212 196 196 287 309 272 1 300 254 245 247 238 230 226 225
223 214 216 219 221 229 226 211 199 198 202 209 220 227 230 224 225 216 209 194 185 182 186 186 195 204 219 210 184 179 168 156 270 259 177 272 205 245 257 243 239 234 230
212 218 222 216 225 238 232 220 211 196 200 209 212 216 230 226 213 208 217 213 207 208 199 188 192 211 209 203 179 178 188 191 217 214 166 240 225 250 259 252 246 236 232
218 225 230 223 226 244 239 230 219 201 205 214 214 213 217 227 211 190 183 194 213 220 218 210 209 216 211 195 187 188 186 178 244 251 173 211 229 246 272 255 250 240 237
234 232 232 225 230 253 245 229 209 192 209 226 228 221 217 222 217 193 173 188 220 245 231 222 229 229 221 203 180 150 154 166 222 234 194 194 220 242 267 261 253 246 243
228 234 246 239 233 246 249 231 209 189 207 227 235 234 231 226 220 202 189 189 214 237 220 219 228 235 217 203 192 184 182 186 194 225 203 189 197 188 266 261 256 253 247
Height
1546 1546 1546 1546 1546 1546 1546 1546 1546 1546 1546 1546 1545 1545 1545 1545 1545 1544 1544 1544 1543 1543 1543 1542 1542 1542 1542 1541 1541 1541 1541 1540 1540 1539 1539 1538 1538 1539 1539 1539 1539 1540 1540
1548 1548 1547 1547 1547 1547 1547 1547 1547 1547 1547 1547 1547 1546 1546 1546 1546 1545 1545 1545 1545 1545 1544 1544 1544 1543 1543 1543 1542 1542 1542 1541 1541 1540 1539 1539 1539 1540 1540 1540 1540 1540 1541
1549 1549 1548 1548 1548 1549 1549 1549 1549 1549 1548 1548 1548 1548 1548 1547 1547 1547 1546 1546 1546 1546 1546 1545 1545 1545 1544 1544 1544 1543 1543 1542 1542 1541 1541 1540 1540 1540 1540 1541 1541 1541 1541
1550 1550 1550 1550 1550 1550 1550 1550 1550 1550 1550 1550 1549 1549 1549 1549 1548 1548 1548 1548 1548 1547 1547 1546 1546 1546 1545 1545 1545 1544 1544 1543 1543 1543 1542 1542 1541 1541 1541 1541 1541 1541 1541
1550 1550 1551 1551 1551 1551 1551 1551 1551 1551 1551 1551 1551 1551 1550 1550 1550 1549 1549 1549 1549 1549 1548 1547 1547 1547 1546 1546 1546 1545 1545 1544 1544 1543 1543 1543 1542 1542 1542 1542 1542 1542 1542
1551 1551 1551 1552 1552 1552 1552 1552 1552 1552 1552 1552 1552 1552 1551 1551 1551 1551 1550 1550 1550 1550 1549 1549 1548 1548 1548 1547 1547 1546 1546 1545 1545 1544 1544 1543 1543 1542 1542 1542 1542 1542 1542
1551 1551 1552 1552 1552 1552 1552 1552 1552 1552 1552 1552 1552 1552 1553 1553 1552 1552 1552 1551 1551 1551 1550 1550 1550 1549 1549 1548 1548 1547 1547 1546 1546 1545 1544 1544 1543 1542 1542 1542 1542 1543 1543
1551 1551 1552 1552 1552 1552 1552 1553 1552 1552 1553 1553 1553 1553 1553 1555 1553 1553 1553 1552 1552 1552 1551 1551 1551 1550 1549 1549 1548 1548 1547 1547 1546 1546 1545 1544 1543 1542 1542 1542 1542 1542 1543
1551 1551 1552 1552 1552 1553 1553 1553 1553 1553 1553 1553 1553 1554 1554 1554 1554 1554 1553 1553 1553 1552 1552 1551 1551 1550 1550 1549 1549 1548 1548 1547 1546 1546 1545 1543 1542 1541 1541 1542 1542 1543 1544
1551 1551 1552 1552 1552 1553 1553 1553 1553 1553 1553 1553 1554 1554 1554 1554 1554 1554 1554 1554 1553 1553 1552 1552 1551 1550 1550 1550 1549 1549 1548 1547 1547 1546 1545 1543 1540 1538 1539 1541 1542 1543 1544
1550 1551 1551 1552 1552 1552 1553 1553 1553 1553 1553 1554 1554 1554 1554 1554 1554 1554 1554 1554 1553 1553 1552 1552 1551 1551 1550 1550 1549 1549 1548 1548 1547 1546 1545 1543 1540 1537 1538 1541 1543 1544 1545
1549 1549 1550 1551 1551 1552 1552 1552 1553 1553 1553 1553 1554 1554 1554 1554 1553 1553 1553 1553 1553 1553 1552 1551 1551 1550 1550 1550 1549 1549 1548 1548 1547 1546 1545 1544 1542 1541 1541 1543 1544 1545 1545
1547 1548 1548 1549 1550 1550 1551 1551 1552 1552 1552 1553 1553 1553 1553 1553 1553 1553 1553 1552 1552 1552 1552 1551 1551 1550 1550 1549 1549 1549 1548 1548 1547 1547 1546 1545 1544 1543 1544 1544 1545 1546 1546
1545 1546 1547 1547 1548 1549 1549 1550 1550 1551 1551 1551 1552 1552 1552 1552 1552 1552 1552 1552 1551 1551 1551 1551 1550 1550 1549 1549 1549 1548 1548 1548 1547 1547 1546 1546 1545 1545 1545 1545 1546 1546 1546
1543 1544 1545 1545 1546 1547 1548 1548 1548 1549 1549 1550 1550 1550 1550 1551 1551 1551 1551 1551 1552 1550 1550 1550 1550 1550 1549 1549 1548 1548 1548 1548 1547 1547 1547 1546 1546 1545 1545 1545 1546 1546 1546
1541 1542 1543 1543 1544 1545 1545 1546 1546 1547 1547 1548 1548 1549 1549 1549 1549 1549 1550 1550 1550 1550 1549 1549 1549 1549 1549 1548 1548 1548 1548 1548 1547 1547 1547 1546 1546 1546 1546 1546 1546 1546 1546
1539 1540 1541 1541 1542 1542 1543 1544 1544 1545 1545 1546 1546 1547 1547 1547 1548 1548 1548 1548 1548 1548 1548 1549 1549 1548 1548 1548 1547 1547 1547 1547 1547 1547 1546 1546 1546 1546 1546 1546 1546 1546 1546
1537 1537 1538 1539 1539 1540 1541 1541 1542 1543 1543 1544 1544 1545 1545 1545 1546 1546 1546 1546 1547 1547 1547 1547 1547 1547 1547 1547 1547 1547 1546 1546 1546 1546 1546 1546 1546 1545 1545 1545 1545 1545 1545
1533 1534 1535 1536 1537 1537 1538 1538 1539 1540 1540 1541 1542 1542 1543 1543 1543 1544 1544 1544 1545 1545 1545 1545 1545 1545 1545 1545 1545 1545 1545 1545 1545 1545 1545 1545 1545 1545 1545 1544 1544 1544 1544
1530 1531 1532 1532 1533 1534 1535 1535 1536 1537 1537 1538 1539 1539 1540 1540 1541 1541 1541 1542 1542 1542 1543 1543 1543 1543 1543 1543 1543 1543 1543 1544 1544 1544 1544 1543 1543 1543 1543 1543 1543 1542 1542
1527 1527 1528 1529 1529 1530 1531 1531 1532 1533 1533 1534 1535 1536 1536 1537 1538 1538 1538 1539 1539 1539 1540 1540 1540 1540 1541 1541 1541 1541 1541 1541 1541 1542 1541 1541 1541 1541 1541 1541 1541 1541 1540
1523 1523 1524 1525 1526 1526 1527 1528 1528 1529 1529 1530 1531 1532 1533 1533 1534 1535 1535 1536 1536 1537 1537 1537 1537 1537 1537 1538 1538 1539 1539 1538 1538 1539 1539 1539 1539 1539 1539 1539 1539 1539 1538
1519 1519 1520 1521 1521 1522 1523 1523 1524 1525 1525 1526 1527 1527 1528 1529 1530 1531 1532 1532 1533 1533 1534 1534 1534 1534 1534 1535 1535 1535 1536 1536 1536 1536 1536 1535 1536 1536 1536 1536 1536 1536 1536
1515 1515 1516 1517 1517 1518 1519 1519 1520 1520 1521 1521 1522 1523 1524 1525 1526 1527 1527 1528 1529 1529 1530 1530 1530 1531 1531 1532 1532 1533 1533 1533 1533 1533 1533 1532 1532 1533 1533 1533 1533 1533 1533
1511 1512 1512 1513 1513 1514 1515 1515 1516 1516 1516 1517 1518 1519 1520 1521 1522 1523 1523 1523 1524 1525 1525 1526 1526 1527 1527 1528 1528 1528 1528 1529 1528 1529 1530 1529 1529 1529 1529 1529 1529 1529 1529
1508 1508 1508 1509 1509 1510 1510 1511 1511 1512 1512 1512 1513 1514 1515 1516 1517 1518 1518 1519 1519 1520 1521 1521 1521 1522 1522 1523 1523 1524 1524 1524 1524 1525 1525 1526 1525 1525 1524 1524 1525 1525 1525